This is the latest recevied weather packets stored in our database for station/object NP4KB. If no packets are shown the sender has not sent any weather packets the latest 1 day(s).
| Time | Temp. | Humidity | Pressure | Rain* | Wind** | Luminosity | Snow |
|---|---|---|---|---|---|---|---|
| 1777992778 | - | - | - | 0 mm | 1.34 m/s, 152° | - | - |
| 1777992475 | - | - | - | 0 mm | 1.79 m/s, 83° | - | - |
| 1777992174 | - | - | - | 0 mm | 3.13 m/s, 159° | - | - |
| 1777991870 | - | - | - | 0 mm | 4.02 m/s, 172° | - | - |
| 1777991568 | - | - | - | 0 mm | 0.89 m/s, 145° | - | - |
| 1777991265 | - | - | - | 0 mm | 2.68 m/s, 158° | - | - |
| 1777990962 | - | - | - | 0 mm | 0.89 m/s, 157° | - | - |
| 1777990660 | - | - | - | 0 mm | 2.68 m/s, 90° | - | - |
| 1777990357 | - | - | - | 0 mm | 2.24 m/s, 171° | - | - |
| 1777990052 | - | - | - | 0 mm | 2.68 m/s, 125° | - | - |
| 1777989749 | - | - | - | 0 mm | 0 m/s | - | - |
| 1777989446 | - | - | - | 0 mm | 4.02 m/s, 138° | - | - |
| 1777989143 | - | - | - | 0 mm | 4.92 m/s, 129° | - | - |
| 1777988839 | - | - | - | 0 mm | 2.24 m/s, 139° | - | - |
| 1777988536 | - | - | - | 0 mm | 2.24 m/s, 85° | - | - |
| 1777988233 | - | - | - | 0 mm | 2.24 m/s, 65° | - | - |
| 1777987929 | - | - | - | 0 mm | 3.58 m/s, 185° | - | - |
| 1777987625 | - | - | - | 0 mm | 1.79 m/s, 182° | - | - |
| 1777987323 | - | - | - | 0 mm | 2.24 m/s, 257° | - | - |
| 1777987020 | - | - | - | 0 mm | 0 m/s | - | - |
| 1777986717 | - | - | - | 0 mm | 0 m/s | - | - |
| 1777986415 | - | - | - | 0 mm | 2.68 m/s, 164° | - | - |
| 1777986113 | - | - | - | 1.27 mm | 0 m/s | - | - |
| 1777985809 | - | - | - | 1.27 mm | 1.34 m/s, 102° | - | - |
| 1777985507 | - | - | - | 0 mm | 1.79 m/s, 138° | - | - |
* Rain latest hour (hover to see other rain measurements)
** Current wind speed in m/s (hover to see current wind gust speed)